Theta_e
304 303 305 307 309 309 309 309 308 308 308 308 308 307 307 306 306 306 306 304 307 309 311 311 314 316 312 307 308 309 310 311 312 306 305 308 312 313 315 315 315 316 314 314 314 314 314
303 304 306 309 309 309 308 308 307 307 307 307 307 306 306 306 306 306 305 304 306 308 308 307 313 316 308 308 304 305 303 305 307 305 304 308 309 312 313 314 315 312 313 314 313 314 313
303 304 308 308 308 308 307 307 307 307 307 307 306 306 306 305 305 306 301 298 305 303 305 307 313 315 305 309 301 300 299 300 301 302 304 305 309 312 312 312 312 311 312 312 312 312 313
307 308 308 307 307 307 307 306 306 306 306 306 306 306 305 305 305 305 302 300 304 309 307 307 314 307 308 302 299 299 299 299 299 299 301 303 305 308 309 309 309 310 309 311 310 309 310
307 306 304 307 307 307 306 306 305 305 306 306 305 305 304 304 304 303 300 303 309 306 308 313 312 304 308 299 300 299 298 300 300 299 300 302 306 306 307 307 308 307 310 310 309 308 309
303 302 305 306 306 306 305 305 305 305 305 305 305 304 304 303 303 302 303 307 306 307 312 304 301 304 304 303 299 297 297 298 300 301 301 303 306 307 307 308 311 314 308 307 308 308 307
298 302 305 305 305 305 305 304 304 304 304 304 303 302 302 302 304 304 306 308 309 310 307 309 309 309 307 303 298 298 296 299 301 302 307 303 308 311 310 309 309 307 306 307 307 306 306
303 305 305 305 305 304 304 304 303 303 303 302 301 301 301 302 304 307 306 307 304 303 308 306 306 306 306 304 304 299 296 301 302 307 301 303 307 309 304 305 306 306 307 308 308 304 304
305 304 304 304 304 304 303 303 302 302 302 302 301 300 301 304 300 304 305 305 305 303 308 309 307 302 300 298 306 304 297 299 300 301 302 306 304 301 301 302 303 305 307 310 308 303 301
304 304 304 303 303 303 302 302 302 302 301 301 300 300 300 304 301 303 305 303 304 303 313 309 305 301 298 298 300 296 295 298 299 302 301 302 301 300 301 303 303 310 300 300 301 303 310
304 304 303 303 303 302 302 301 301 301 300 300 299 299 300 302 303 305 303 300 306 305 316 306 303 299 298 300 299 299 294 296 301 301 301 307 302 301 304 303 299 302 296 297 297 300 301
303 303 303 303 302 302 301 301 301 300 300 299 299 298 299 301 302 301 300 302 305 311 315 311 307 307 306 303 301 298 297 296 296 299 299 300 295 296 297 294 294 294 296 296 297 299 306
303 303 302 302 302 302 301 301 300 300 299 298 298 296 298 301 301 299 301 305 307 310 308 310 309 307 305 307 305 302 302 303 306 309 310 304 298 293 293 296 295 295 301 310 311 309 310
303 302 302 302 302 301 301 301 301 300 299 297 296 296 300 299 298 300 303 308 306 307 309 306 306 306 308 306 306 306 305 305 300 299 304 306 307 297 294 297 300 297 301 309 311 311 310
302 302 302 301 301 301 301 301 301 300 299 297 296 295 298 297 299 300 307 302 304 308 306 307 305 304 308 306 304 305 305 303 304 304 305 307 306 293 293 293 299 300 301 302 309 304 307
302 302 302 301 301 301 301 302 301 300 299 297 296 295 296 296 299 303 305 303 306 305 304 305 304 306 307 306 304 304 305 300 304 303 303 305 305 299 292 293 294 301 299 303 303 305 304
302 301 301 302 301 300 301 301 301 300 299 296 296 297 295 296 299 304 304 305 305 303 303 303 305 306 305 305 303 304 306 305 305 303 303 303 304 302 300 300 302 299 300 302 303 306 304
301 301 301 301 299 299 300 301 301 300 299 296 296 299 295 296 302 301 300 298 298 301 301 300 303 303 304 303 302 303 303 304 301 301 301 301 300 301 300 297 296 296 298 300 305 306 304
301 301 301 301 300 300 300 301 300 300 299 295 296 295 295 296 298 296 296 296 297 299 299 298 299 300 300 301 300 301 302 303 299 298 299 299 298 298 296 297 296 300 300 300 301 301 301
301 301 301 301 300 300 300 299 300 300 299 295 297 297 296 296 295 295 296 296 296 296 297 297 298 298 298 297 299 299 298 297 297 297 297 299 300 298 297 296 297 298 297 298 298 298 298
300 300 300 300 300 300 300 300 300 299 300 296 296 296 295 296 296 295 295 295 296 295 296 296 296 296 295 294 294 294 294 295 295 295 296 298 296 296 297 296 296 297 297 297 296 297 298
300 300 300 300 300 300 300 299 299 300 299 295 297 296 295 295 294 295 295 295 295 295 295 295 295 295 294 295 295 294 294 293 295 294 296 296 297 296 295 294 294 295 295 295 296 296 297
300 300 300 300 299 299 299 299 299 299 299 294 294 295 296 296 295 295 295 294 294 294 295 295 295 295 295 294 294 294 294 294 294 295 295 297 296 296 294 293 294 296 296 296 297 297 298
299 299 298 298 298 298 298 298 298 298 298 298 293 293 297 297 296 296 295 295 295 294 295 295 295 295 294 292 293 293 293 293 293 293 293 296 296 296 295 294 295 294 293 295 295 296 296
298 298 297 297 297 297 297 297 297 297 298 298 297 294 295 297 296 295 295 295 295 295 295 294 295 294 291 292 294 293 292 292 292 292 293 294 296 295 295 295 294 294 293 294 294 294 293
296 296 297 297 297 297 297 296 296 297 297 297 297 296 293 296 297 295 295 294 295 294 294 292 290 289 291 294 293 293 292 292 293 293 292 293 294 295 293 295 293 293 291 289 291 295 289
296 296 296 296 297 297 297 297 297 297 297 296 296 296 295 295 294 294 295 294 293 292 293 292 292 291 291 294 293 292 292 291 293 294 294 295 295 295 294 296 294 292 289 289 295 294 287
296 296 296 297 297 297 297 297 297 297 297 296 296 295 294 295 295 293 293 294 293 293 294 292 292 290 291 293 293 292 293 292 292 292 293 293 295 294 291 293 293 288 288 293 292 291 289
296 296 296 296 296 296 297 297 297 296 296 295 295 295 294 293 294 292 292 293 293 293 294 292 294 291 292 292 292 292 293 290 292 292 290 293 293 295 294 294 289 287 291 289 290 290 291
Wind_Speed
20 21 22 23 24 25 25 27 28 28 28 28 29 30 31 32 32 31 31 30 29 27 23 21 14 8 4 4 7 4 8 11 14 14 13 11 11 9 10 6 10 14 16 10 12 14 13
21 23 24 25 26 26 27 28 28 29 29 30 31 32 34 35 36 35 35 33 32 27 23 20 16 9 5 8 5 9 7 9 7 9 8 10 7 9 4 6 12 3 6 12 11 16 11
22 23 24 25 26 27 28 29 29 30 30 30 31 33 34 36 36 37 34 34 31 30 25 15 8 17 5 7 3 10 10 8 10 7 5 8 6 8 4 7 3 4 10 14 14 14 10
22 23 24 25 26 26 27 29 30 31 31 31 32 34 36 37 38 39 36 28 32 20 5 1 13 7 5 1 4 4 5 4 6 5 2 4 6 7 6 0 3 5 5 10 1 4 2
20 22 23 24 25 26 27 28 30 32 33 33 34 36 37 38 39 40 27 27 12 7 6 9 7 4 2 1 1 2 4 3 5 4 3 5 4 2 3 7 8 8 12 11 9 5 3
21 23 23 23 25 26 28 29 31 32 35 37 37 39 40 41 43 35 21 13 4 5 6 3 3 3 2 1 0 1 2 6 2 6 4 4 4 7 6 9 11 7 8 6 9 3 6
21 22 23 24 26 28 29 31 32 33 35 38 41 44 44 43 41 19 20 3 3 3 4 4 2 5 5 2 2 2 1 3 4 4 8 5 9 14 16 15 13 9 10 14 16 6 6
20 22 24 26 28 29 30 31 33 34 36 38 41 46 48 46 29 15 13 5 4 6 8 4 5 5 5 2 3 3 4 6 6 9 6 5 13 10 4 7 12 13 13 15 14 4 7
21 23 24 26 27 29 30 32 33 34 36 39 40 45 47 37 6 10 16 9 14 2 5 5 3 3 1 3 2 3 2 4 6 8 13 9 2 5 7 6 9 11 14 12 10 4 10
20 21 23 26 27 29 31 33 34 36 38 43 42 44 41 30 4 8 4 19 15 1 4 4 2 2 2 2 2 1 0 1 4 7 6 7 2 4 5 6 8 10 3 4 5 4 8
20 22 24 26 28 30 32 34 36 38 42 44 44 49 31 14 6 4 12 22 6 3 5 3 2 1 1 2 2 2 0 2 5 5 4 1 3 4 6 2 2 1 1 2 3 7 6
20 22 24 25 27 29 31 34 36 40 43 46 46 49 26 7 3 9 19 12 3 1 5 1 2 3 6 1 1 0 1 1 2 2 4 3 2 2 1 1 1 3 3 2 2 3 5
19 21 21 23 24 26 28 31 35 38 43 48 50 43 13 6 8 22 15 3 3 3 3 4 3 6 5 3 1 2 2 1 3 4 5 3 1 1 1 3 1 4 3 3 4 3 3
19 20 21 23 24 26 27 30 33 35 42 50 50 33 4 7 24 14 3 3 5 2 2 2 4 9 4 4 0 3 2 3 1 3 2 3 4 5 2 2 1 0 3 3 5 6 8
22 23 24 24 25 27 28 27 30 33 39 47 46 24 3 19 22 8 3 3 3 2 3 8 10 4 2 2 4 4 2 1 1 4 2 2 3 2 1 1 2 4 3 3 3 3 5
21 23 24 25 26 27 27 27 28 31 35 41 29 11 5 29 15 2 2 3 4 4 6 2 3 1 3 1 6 4 2 2 4 0 3 2 5 2 2 2 3 2 5 3 3 5 11
25 24 25 24 26 27 26 26 27 27 30 36 10 5 8 28 6 1 2 4 4 3 5 4 4 6 5 6 3 3 3 2 2 1 2 0 4 2 2 4 6 3 3 4 3 4 8
24 24 25 25 26 27 27 26 26 25 26 23 6 5 16 25 2 2 3 8 5 5 3 4 4 6 5 2 4 5 5 3 1 0 1 2 0 5 8 2 2 1 2 4 6 4 6
23 24 24 26 27 27 27 26 23 22 18 16 7 4 10 10 2 5 8 6 4 4 3 4 3 4 4 3 5 6 3 4 2 1 2 2 1 4 5 3 2 3 4 5 4 4 10
25 25 25 26 27 28 28 27 24 21 11 11 3 4 3 4 2 6 7 7 5 4 4 3 4 3 4 3 3 4 5 3 2 2 2 1 5 8 11 12 10 13 15 10 9 7 14
25 26 26 26 26 27 26 27 24 21 13 2 2 3 2 4 5 9 4 7 11 8 1 2 2 2 2 3 4 5 3 9 8 6 3 3 7 10 12 15 14 15 16 18 16 16 14
27 28 28 28 28 27 27 27 26 20 14 7 3 3 4 5 5 5 4 4 11 12 4 8 6 9 4 5 8 13 13 5 6 2 1 3 5 3 12 13 14 15 17 15 17 18 17
29 30 30 29 29 29 28 28 25 21 15 7 6 4 3 6 6 4 6 6 9 10 7 9 9 8 10 12 10 11 11 15 13 8 5 4 3 2 9 7 7 9 13 8 4 6 7
31 31 31 30 29 28 27 25 24 23 19 15 10 4 3 6 9 9 10 11 15 14 15 13 11 6 2 3 9 12 15 18 16 17 11 6 3 3 6 5 4 3 1 3 7 8 8
31 32 32 31 30 29 28 25 25 23 21 20 11 7 3 4 9 12 14 11 11 11 13 14 14 6 1 4 3 6 3 3 4 7 11 11 5 3 3 4 7 9 2 2 3 4 2
33 33 32 31 29 26 26 24 24 22 21 20 17 21 3 2 8 11 4 8 9 11 4 4 0 0 2 3 3 3 3 2 1 3 1 5 6 5 3 5 4 1 2 0 1 4 2
33 32 30 30 29 27 26 26 24 22 19 16 12 13 9 3 4 7 5 6 4 2 3 3 4 4 3 3 3 3 4 1 2 1 3 4 4 11 10 6 6 2 1 1 5 2 1
32 32 32 31 30 29 28 26 24 22 20 16 15 17 11 3 3 8 6 6 3 4 4 1 2 2 3 4 3 2 3 1 2 1 2 3 3 4 2 4 5 2 3 3 3 1 1
33 33 33 31 30 28 28 25 22 20 18 13 8 16 18 4 2 4 10 19 22 18 5 6 2 4 4 3 3 1 3 3 2 5 2 4 6 3 6 3 3 2 1 1 1 3 1
Wind_Direction
35 32 27 23 20 17 13 10 6 3 359 357 353 350 348 345 340 334 328 325 322 319 312 305 296 277 155 225 264 159 158 163 176 173 177 178 185 203 222 226 212 238 255 254 257 259 250
34 28 24 19 17 13 11 8 3 360 357 354 351 347 345 342 338 333 327 324 321 316 312 304 286 221 195 214 198 182 182 178 187 186 186 187 209 213 253 232 225 357 280 274 271 263 249
29 25 21 17 14 11 10 5 1 356 354 351 348 344 341 338 334 330 328 323 322 317 312 296 240 181 209 277 197 172 179 196 201 197 188 206 202 203 180 236 228 268 278 273 254 250 243
25 22 20 15 11 8 6 3 357 353 351 349 345 342 338 336 333 330 326 325 325 323 328 121 155 181 255 269 172 173 178 161 178 190 198 176 193 220 231 89 222 253 243 271 129 190 197
25 20 17 13 9 5 3 359 355 352 349 346 344 342 339 336 330 328 330 328 342 29 76 125 137 203 252 59 156 199 187 199 154 138 121 131 177 229 170 230 250 217 262 248 282 203 154
20 16 12 8 5 4 1 358 355 353 349 345 343 341 340 335 332 332 334 336 59 70 102 115 114 221 190 117 40 155 135 153 157 144 128 179 194 222 211 209 249 256 243 240 252 144 212
14 11 7 4 3 1 360 357 354 352 348 345 341 341 341 337 332 342 350 23 314 201 29 297 294 281 271 318 187 128 92 157 143 205 235 198 223 225 236 230 263 263 259 268 267 254 270
11 7 5 3 1 358 356 355 353 351 348 346 343 341 341 339 338 28 40 59 38 309 307 289 265 257 263 238 219 167 151 196 196 220 167 190 241 247 209 232 236 241 256 263 271 306 226
8 5 2 359 358 355 353 352 350 348 347 345 344 344 342 343 21 38 59 47 358 321 276 284 223 262 276 205 201 156 216 169 200 192 204 230 76 108 185 202 210 228 233 263 271 316 245
4 0 358 356 354 353 350 349 348 347 345 343 345 345 343 348 49 351 45 345 346 172 279 164 205 154 165 198 200 78 67 246 207 232 209 248 134 207 207 232 221 265 324 276 264 278 282
359 357 355 352 350 349 348 347 347 344 343 342 343 344 342 360 331 16 319 329 348 167 308 49 100 43 87 268 17 116 322 176 243 196 196 102 171 197 226 274 230 12 14 278 247 257 304
354 352 351 349 347 345 345 345 344 343 341 341 341 343 339 346 334 329 324 322 183 241 245 85 17 23 339 47 59 38 206 224 3 243 232 276 59 5 50 136 281 148 220 192 165 222 240
348 345 344 342 341 342 342 342 342 342 340 341 341 345 334 342 332 328 332 240 266 213 18 17 345 343 325 300 242 325 179 174 268 248 206 184 153 110 269 186 195 216 235 278 227 193 287
338 337 334 337 337 338 338 340 340 341 342 343 341 344 2 4 337 340 303 254 234 71 341 358 299 301 244 356 129 316 238 215 59 285 258 240 208 175 144 311 328 177 297 262 282 279 307
336 335 333 334 334 336 335 334 339 340 343 342 341 349 350 346 342 343 292 263 313 352 334 323 309 270 189 192 339 312 251 258 84 354 257 245 240 122 52 38 309 139 200 9 285 221 262
331 328 330 331 332 334 334 335 338 341 343 344 334 327 302 345 341 303 277 308 327 357 333 277 279 294 284 335 324 309 265 95 153 48 338 97 290 60 93 185 68 319 129 232 202 256 260
329 327 327 327 330 332 330 333 336 340 344 346 346 336 347 349 355 5 22 337 309 347 340 299 308 294 287 304 275 263 283 101 53 132 340 138 227 98 233 209 295 230 219 214 287 247 262
323 322 324 325 328 327 328 329 335 337 344 354 359 316 352 356 327 33 6 327 328 318 334 299 283 272 281 8 286 258 261 28 139 349 117 67 300 272 284 61 47 1 294 278 248 240 241
321 322 322 323 323 324 326 325 328 333 347 349 337 287 340 349 31 8 338 309 286 306 317 317 291 17 12 320 292 260 310 129 172 35 92 152 204 287 249 174 152 211 177 232 246 242 266
321 323 322 321 321 322 324 324 320 322 323 348 324 311 339 44 62 5 340 304 315 324 288 305 292 299 334 299 294 322 312 360 303 329 321 161 216 235 263 285 303 290 289 248 274 273 277
320 320 319 318 318 318 318 317 316 317 296 319 216 232 166 304 318 321 306 285 299 308 268 280 268 326 325 288 304 276 300 314 284 301 261 236 258 258 262 277 278 269 266 273 268 256 259
318 318 318 317 318 318 316 316 317 313 307 204 237 238 189 257 271 235 280 258 290 297 263 285 274 301 219 251 262 294 297 264 267 34 292 233 258 236 275 277 270 267 263 264 263 266 268
318 318 318 317 317 316 316 317 317 310 305 203 233 244 203 197 195 219 251 253 267 285 259 269 272 259 253 272 286 266 266 258 255 258 263 247 241 243 275 312 304 269 250 236 205 219 241
317 315 315 314 315 313 314 315 315 313 304 265 201 198 216 225 211 219 228 256 266 273 271 276 263 242 229 290 288 264 258 260 256 250 233 249 208 235 280 295 241 57 216 270 265 263 223
317 314 313 314 313 312 311 310 311 306 301 293 256 190 218 250 219 229 239 257 269 274 276 275 259 248 359 279 266 298 265 221 209 224 226 221 227 243 253 251 309 296 149 175 236 295 230
314 312 312 312 310 309 309 311 312 306 299 295 285 242 234 247 206 240 214 246 264 283 285 238 163 119 206 247 250 267 283 325 245 145 74 188 219 223 176 260 265 293 114 128 231 247 94
310 309 307 306 308 306 304 303 307 311 307 296 284 268 247 254 169 188 213 258 188 203 236 252 202 192 207 223 247 254 250 307 273 239 155 159 205 231 247 265 272 2 10 128 228 57 28
306 304 304 305 306 307 305 305 303 303 305 301 288 261 225 243 179 209 202 215 188 204 250 168 215 158 175 204 234 216 243 190 246 262 198 213 244 210 180 224 259 46 148 234 15 3 37
304 304 304 306 308 310 308 306 303 301 305 302 273 264 249 212 287 239 259 250 233 235 250 188 270 171 196 206 226 176 230 205 245 276 184 246 217 254 216 242 89 86 11 119 261 299 349